Time,TemperatureF,DewpointF,PressureIn,WindDirection,WindDirectionDegrees,WindSpeedMPH,WindSpeedGustMPH,Humidity,HourlyPrecipIn,Conditions,Clouds,dailyrainin,SoftwareType,DateUTC
2013-04-24 00:02:00,41.3,39.4,29.67,North,7,0.0,0.0,93,0.12,,-RA,0.95,VWS V14.01,2013-04-24 04:02:00,
2013-04-24 00:07:00,41.5,39.6,29.67,NNE,17,0.0,0.0,93,0.13,,-RA,0.01,VWS V14.01,2013-04-24 04:07:00,
2013-04-24 00:13:00,41.3,39.4,29.67,NNE,20,0.0,0.0,93,0.13,,-RA,0.01,VWS V14.01,2013-04-24 04:13:00,
2013-04-24 00:17:00,41.3,39.4,29.67,NNW,328,0.0,0.0,93,0.12,,-RA,0.01,VWS V14.01,2013-04-24 04:17:00,
2013-04-24 00:22:00,41.2,39.3,29.67,NNE,17,0.0,0.0,93,0.10,,-RA,0.01,VWS V14.01,2013-04-24 04:22:00,
2013-04-24 00:27:00,41.2,39.3,29.67,NNE,13,0.0,0.0,93,0.10,,-RA,0.02,VWS V14.01,2013-04-24 04:27:00,
2013-04-24 00:32:00,41.2,39.3,29.66,North,357,0.0,0.0,93,0.09,,-RA,0.02,VWS V14.01,2013-04-24 04:32:00,
2013-04-24 00:37:00,41.1,39.2,29.66,North,11,0.0,0.0,93,0.07,,-RA,0.02,VWS V14.01,2013-04-24 04:37:00,
2013-04-24 00:42:00,41.1,39.2,29.66,North,1,0.0,0.0,93,0.08,,-RA,0.03,VWS V14.01,2013-04-24 04:42:00,
2013-04-24 00:47:00,41.1,39.2,29.67,NNE,25,0.0,0.0,93,0.07,,-RA,0.03,VWS V14.01,2013-04-24 04:47:00,
2013-04-24 00:52:00,41.1,39.2,29.67,NNW,344,0.0,0.0,93,0.07,,-RA,0.03,VWS V14.01,2013-04-24 04:52:00,
2013-04-24 00:57:00,41.1,39.2,29.67,North,349,0.0,0.0,93,0.06,,-RA,0.04,VWS V14.01,2013-04-24 04:57:00,
2013-04-24 01:02:00,40.9,39.0,29.67,North,1,0.0,0.0,93,0.05,,-RA,0.05,VWS V14.01,2013-04-24 05:02:00,
2013-04-24 01:07:00,40.9,39.0,29.67,NE,41,0.0,0.0,93,0.05,,-RA,0.05,VWS V14.01,2013-04-24 05:07:00,
2013-04-24 01:12:00,40.9,39.0,29.67,North,1,0.0,0.0,93,0.05,,-RA,0.06,VWS V14.01,2013-04-24 05:12:00,
2013-04-24 01:22:00,40.6,38.7,29.66,NNE,14,0.0,0.0,93,0.06,,-RA,0.07,VWS V14.01,2013-04-24 05:22:00,
2013-04-24 01:27:00,40.6,38.7,29.66,NW,320,0.0,0.0,93,0.07,,-RA,0.08,VWS V14.01,2013-04-24 05:27:00,
2013-04-24 01:32:00,40.6,38.7,29.66,North,353,0.0,0.0,93,0.07,,-RA,0.09,VWS V14.01,2013-04-24 05:32:00,
2013-04-24 01:37:00,40.5,38.4,29.66,North,353,0.0,0.0,92,0.08,,-RA,0.10,VWS V14.01,2013-04-24 05:37:00,
2013-04-24 01:42:00,40.3,38.2,29.66,NNW,346,0.0,0.0,92,0.09,,OVC005,0.11,VWS V14.01,2013-04-24 05:42:00,
2013-04-24 01:47:00,40.3,38.2,29.66,North,359,0.0,0.0,92,0.08,,OVC005,0.11,VWS V14.01,2013-04-24 05:47:00,
2013-04-24 01:52:00,40.3,38.2,29.66,NW,308,0.0,0.0,92,0.08,,OVC005,0.11,VWS V14.01,2013-04-24 05:52:00,
2013-04-24 01:57:00,40.2,38.1,29.66,North,10,0.0,0.0,92,0.08,,OVC005,0.11,VWS V14.01,2013-04-24 05:57:00,
2013-04-24 02:02:00,40.1,38.0,29.64,North,353,0.0,0.0,92,0.09,,OVC005,0.13,VWS V14.01,2013-04-24 06:02:00,
2013-04-24 02:07:00,39.9,37.8,29.64,NNW,329,0.0,0.0,92,0.08,,OVC005,0.13,VWS V14.01,2013-04-24 06:07:00,
2013-04-24 02:12:00,39.8,37.7,29.64,NNW,330,0.0,0.0,92,0.08,,OVC005,0.13,VWS V14.01,2013-04-24 06:12:00,
2013-04-24 02:22:00,39.9,37.8,29.66,NNW,330,0.0,0.0,92,0.08,,OVC005,0.14,VWS V14.01,2013-04-24 06:22:00,
2013-04-24 02:27:00,39.6,37.5,29.66,North,353,0.0,0.0,92,0.07,,OVC005,0.14,VWS V14.01,2013-04-24 06:27:00,
2013-04-24 02:32:00,39.6,37.5,29.65,NW,326,0.0,0.0,92,0.06,,OVC005,0.14,VWS V14.01,2013-04-24 06:32:00,
2013-04-24 02:37:00,39.6,37.5,29.65,WNW,302,0.0,0.0,92,0.05,,OVC005,0.14,VWS V14.01,2013-04-24 06:37:00,
2013-04-24 02:42:00,39.5,37.4,29.65,NNW,328,0.0,0.0,92,0.04,,-RA,0.14,VWS V14.01,2013-04-24 06:42:00,
2013-04-24 02:47:00,39.3,37.2,29.66,NW,326,0.0,0.0,92,0.04,,-RA,0.15,VWS V14.01,2013-04-24 06:47:00,
2013-04-24 02:52:00,39.3,37.2,29.66,NW,325,0.0,0.0,92,0.04,,-RA,0.15,VWS V14.01,2013-04-24 06:52:00,
2013-04-24 02:57:00,39.3,37.2,29.66,NNW,333,0.0,0.0,92,0.04,,-RA,0.15,VWS V14.01,2013-04-24 06:57:00,
2013-04-24 03:07:00,39.2,37.1,29.67,NNW,332,0.0,0.0,92,0.02,,-RA,0.15,VWS V14.01,2013-04-24 07:07:00,
2013-04-24 03:17:00,38.8,36.7,29.67,NNW,343,0.0,0.0,92,0.04,,-RA,0.17,VWS V14.01,2013-04-24 07:17:00,
2013-04-24 03:22:00,38.8,36.7,29.67,WNW,294,0.0,0.0,92,0.05,,-RA,0.18,VWS V14.01,2013-04-24 07:22:00,
2013-04-24 03:32:00,38.6,36.5,29.68,NW,313,0.0,0.0,92,0.04,,-RA,0.18,VWS V14.01,2013-04-24 07:32:00,
2013-04-24 03:37:00,38.6,36.5,29.68,NNW,329,0.0,0.0,92,0.04,,-RA,0.18,VWS V14.01,2013-04-24 07:37:00,
2013-04-24 03:42:00,38.5,36.4,29.68,NW,322,0.0,0.0,92,0.04,,OVC005,0.18,VWS V14.01,2013-04-24 07:42:00,
2013-04-24 03:47:00,38.5,36.4,29.68,NNW,332,0.0,0.0,92,0.04,,OVC005,0.18,VWS V14.01,2013-04-24 07:47:00,
2013-04-24 03:52:00,38.3,36.2,29.68,NNW,342,0.0,0.0,92,0.03,,OVC005,0.18,VWS V14.01,2013-04-24 07:52:00,
2013-04-24 04:02:00,38.2,36.1,29.68,NNW,337,0.0,0.0,92,0.04,,OVC005,0.19,VWS V14.01,2013-04-24 08:02:00,
2013-04-24 04:12:00,38.2,36.1,29.68,NNW,329,0.0,0.0,92,0.04,,OVC005,0.19,VWS V14.01,2013-04-24 08:12:00,
2013-04-24 04:17:00,38.2,36.1,29.68,NNW,332,0.0,0.0,92,0.03,,OVC005,0.19,VWS V14.01,2013-04-24 08:17:00,
2013-04-24 04:22:00,38.2,36.1,29.68,WNW,301,0.0,0.0,92,0.02,,OVC005,0.19,VWS V14.01,2013-04-24 08:22:00,
2013-04-24 04:27:00,38.2,36.1,29.68,NNW,332,0.0,0.0,92,0.01,,OVC005,0.19,VWS V14.01,2013-04-24 08:27:00,
2013-04-24 04:32:00,38.2,36.1,29.68,NW,326,0.0,0.0,92,0.01,,OVC005,0.19,VWS V14.01,2013-04-24 08:32:00,
2013-04-24 04:42:00,38.2,36.1,29.68,NW,326,0.0,0.0,92,0.01,,OVC011,0.19,VWS V14.01,2013-04-24 08:42:00,
2013-04-24 04:47:00,38.2,36.1,29.67,North,349,0.0,0.0,92,0.01,,OVC011,0.19,VWS V14.01,2013-04-24 08:47:00,
2013-04-24 04:52:00,38.2,36.1,29.67,North,357,0.0,0.0,92,0.01,,OVC011,0.19,VWS V14.01,2013-04-24 08:52:00,
2013-04-24 04:57:00,38.2,36.1,29.67,NNW,333,0.0,0.0,92,0.01,,OVC011,0.19,VWS V14.01,2013-04-24 08:57:00,
2013-04-24 05:02:00,38.2,36.1,29.69,North,1,0.0,0.0,92,0.01,,OVC011,0.19,VWS V14.01,2013-04-24 09:02:00,
2013-04-24 05:12:00,38.0,35.9,29.69,North,349,0.0,0.0,92,0.00,,OVC011,0.19,VWS V14.01,2013-04-24 09:12:00,
2013-04-24 05:17:00,37.9,35.5,29.69,NE,37,0.0,0.0,91,0.00,,OVC011,0.19,VWS V14.01,2013-04-24 09:17:00,
2013-04-24 05:22:00,37.8,35.4,29.69,North,349,0.0,0.0,91,0.00,,OVC011,0.19,VWS V14.01,2013-04-24 09:22:00,
2013-04-24 05:27:00,37.6,35.2,29.69,NNW,337,0.0,0.0,91,0.00,,OVC011,0.19,VWS V14.01,2013-04-24 09:27:00,
2013-04-24 05:32:00,37.6,35.2,29.69,NNW,337,0.0,0.0,91,0.00,,OVC011,0.19,VWS V14.01,2013-04-24 09:32:00,
2013-04-24 05:37:00,37.6,35.2,29.69,NW,323,0.0,0.0,91,0.00,,OVC011,0.19,VWS V14.01,2013-04-24 09:37:00,
2013-04-24 05:42:00,37.6,35.2,29.69,NW,315,0.0,0.0,91,0.00,,OVC013,0.19,VWS V14.01,2013-04-24 09:42:00,
2013-04-24 05:47:00,37.5,35.1,29.70,NNW,336,0.0,0.0,91,0.00,,OVC013,0.19,VWS V14.01,2013-04-24 09:47:00,
2013-04-24 05:52:00,37.5,35.1,29.70,NNE,25,0.0,0.0,91,0.00,,OVC013,0.19,VWS V14.01,2013-04-24 09:52:00,
2013-04-24 05:57:00,37.5,35.1,29.70,North,359,0.0,0.0,91,0.00,,OVC013,0.19,VWS V14.01,2013-04-24 09:57:00,
2013-04-24 06:02:00,37.3,34.9,29.71,North,359,0.0,0.0,91,0.00,,OVC013,0.19,VWS V14.01,2013-04-24 10:02:00,
2013-04-24 06:07:00,37.2,34.5,29.71,North,4,0.0,0.0,90,0.00,,OVC013,0.19,VWS V14.01,2013-04-24 10:07:00,
2013-04-24 06:12:00,37.0,34.3,29.71,North,1,0.0,0.0,90,0.00,,OVC013,0.19,VWS V14.01,2013-04-24 10:12:00,
2013-04-24 06:17:00,37.0,34.3,29.71,NNW,346,0.0,0.0,90,0.00,,OVC013,0.19,VWS V14.01,2013-04-24 10:17:00,
2013-04-24 06:22:00,36.9,34.0,29.71,North,8,0.0,0.0,89,0.00,,OVC013,0.19,VWS V14.01,2013-04-24 10:22:00,
2013-04-24 06:27:00,36.9,33.4,29.71,North,357,0.0,0.0,87,0.00,,OVC013,0.19,VWS V14.01,2013-04-24 10:27:00,
2013-04-24 06:32:00,36.9,33.1,29.72,North,7,0.0,0.0,86,0.00,,OVC013,0.19,VWS V14.01,2013-04-24 10:32:00,
2013-04-24 06:37:00,37.0,33.2,29.72,NNE,16,0.0,0.0,86,0.00,,OVC013,0.19,VWS V14.01,2013-04-24 10:37:00,
2013-04-24 06:42:00,36.9,33.1,29.72,North,6,0.0,0.0,86,0.00,,OVC044,0.19,VWS V14.01,2013-04-24 10:42:00,
2013-04-24 06:47:00,36.9,33.1,29.69,North,1,0.0,0.0,86,0.00,,OVC044,0.19,VWS V14.01,2013-04-24 10:47:00,
2013-04-24 06:52:00,36.9,32.8,29.69,North,1,0.0,0.0,85,0.00,,OVC044,0.19,VWS V14.01,2013-04-24 10:52:00,
2013-04-24 06:57:00,36.8,32.4,29.69,North,350,0.0,0.0,84,0.00,,OVC044,0.19,VWS V14.01,2013-04-24 10:57:00,
2013-04-24 07:02:00,36.9,32.2,29.72,NNE,17,0.0,0.0,83,0.00,,OVC044,0.19,VWS V14.01,2013-04-24 11:02:00,
2013-04-24 07:12:00,36.9,32.5,29.72,NNW,346,0.0,0.0,84,0.00,,OVC044,0.19,VWS V14.01,2013-04-24 11:12:00,
2013-04-24 07:22:00,37.0,32.6,29.73,North,350,0.0,0.0,84,0.00,,OVC044,0.19,VWS V14.01,2013-04-24 11:22:00,
2013-04-24 07:32:00,36.9,32.5,29.73,North,349,0.0,0.0,84,0.00,,OVC044,0.19,VWS V14.01,2013-04-24 11:32:00,
2013-04-24 07:37:00,36.9,32.2,29.73,North,0,0.0,0.0,83,0.00,,OVC044,0.19,VWS V14.01,2013-04-24 11:37:00,
2013-04-24 07:42:00,36.8,31.8,29.73,North,0,0.0,0.0,82,0.00,,OVC048,0.19,VWS V14.01,2013-04-24 11:42:00,
2013-04-24 07:47:00,36.9,31.9,29.74,NNW,335,0.0,0.0,82,0.00,,OVC048,0.19,VWS V14.01,2013-04-24 11:47:00,
2013-04-24 07:57:00,36.9,31.9,29.74,North,350,0.0,0.0,82,0.00,,OVC048,0.19,VWS V14.01,2013-04-24 11:57:00,
2013-04-24 08:02:00,36.8,31.8,29.74,NNW,346,0.0,0.0,82,0.00,,OVC048,0.19,VWS V14.01,2013-04-24 12:02:00,
2013-04-24 08:12:00,36.8,31.8,29.74,North,350,0.0,0.0,82,0.00,,OVC048,0.19,VWS V14.01,2013-04-24 12:12:00,
2013-04-24 08:22:00,36.6,31.6,29.74,NW,318,0.0,0.0,82,0.00,,OVC048,0.19,VWS V14.01,2013-04-24 12:22:00,
2013-04-24 08:27:00,36.6,31.6,29.74,North,1,0.0,0.0,82,0.00,,OVC048,0.19,VWS V14.01,2013-04-24 12:27:00,
2013-04-24 08:32:00,36.6,31.6,29.74,North,1,0.0,0.0,82,0.00,,OVC048,0.19,VWS V14.01,2013-04-24 12:32:00,
2013-04-24 08:37:00,36.8,31.8,29.74,NNE,20,0.0,0.0,82,0.00,,OVC048,0.19,VWS V14.01,2013-04-24 12:37:00,
2013-04-24 08:47:00,36.8,31.8,29.74,North,0,0.0,0.0,82,0.00,,OVC048,0.19,VWS V14.01,2013-04-24 12:47:00,
2013-04-24 08:52:00,36.6,31.3,29.74,North,1,0.0,0.0,81,0.00,,OVC048,0.19,VWS V14.01,2013-04-24 12:52:00,
2013-04-24 09:02:00,36.8,31.2,29.74,NNW,342,0.0,0.0,80,0.00,,OVC048,0.19,VWS V14.01,2013-04-24 13:02:00,
2013-04-24 09:07:00,36.8,31.2,29.74,NNW,342,0.0,0.0,80,0.00,,OVC048,0.19,VWS V14.01,2013-04-24 13:07:00,
2013-04-24 09:12:00,36.8,31.2,29.74,North,349,0.0,0.0,80,0.00,,OVC048,0.19,VWS V14.01,2013-04-24 13:12:00,
2013-04-24 09:17:00,36.8,31.2,29.76,NW,315,0.0,0.0,80,0.00,,OVC048,0.19,VWS V14.01,2013-04-24 13:17:00,
2013-04-24 09:22:00,36.8,31.2,29.76,North,350,0.0,0.0,80,0.00,,OVC048,0.19,VWS V14.01,2013-04-24 13:22:00,
2013-04-24 09:27:00,36.8,31.2,29.76,NNW,328,0.0,0.0,80,0.00,,OVC048,0.19,VWS V14.01,2013-04-24 13:27:00,
2013-04-24 09:32:00,36.8,31.2,29.76,North,352,0.0,0.0,80,0.00,,OVC048,0.19,VWS V14.01,2013-04-24 13:32:00,
2013-04-24 09:37:00,36.6,31.3,29.76,North,349,0.0,0.0,81,0.00,,OVC048,0.19,VWS V14.01,2013-04-24 13:37:00,
2013-04-24 09:42:00,36.8,31.5,29.76,NNW,342,0.0,0.0,81,0.00,,OVC060,0.19,VWS V14.01,2013-04-24 13:42:00,
2013-04-24 09:47:00,36.6,31.0,29.75,NNW,344,0.0,0.0,80,0.00,,OVC060,0.19,VWS V14.01,2013-04-24 13:47:00,
2013-04-24 09:52:00,36.6,30.7,29.75,North,0,0.0,0.0,79,0.00,,OVC060,0.19,VWS V14.01,2013-04-24 13:52:00,
2013-04-24 09:57:00,36.8,30.9,29.75,North,354,0.0,0.0,79,0.00,,OVC060,0.19,VWS V14.01,2013-04-24 13:57:00,
2013-04-24 10:02:00,36.8,30.9,29.75,NNW,336,0.0,0.0,79,0.00,,OVC060,0.19,VWS V14.01,2013-04-24 14:02:00,
2013-04-24 10:07:00,36.8,30.9,29.75,NW,323,0.0,0.0,79,0.00,,OVC060,0.19,VWS V14.01,2013-04-24 14:07:00,
2013-04-24 10:12:00,36.8,30.9,29.75,NNW,344,0.0,0.0,79,0.00,,OVC060,0.19,VWS V14.01,2013-04-24 14:12:00,
2013-04-24 10:17:00,36.8,30.9,29.75,North,357,0.0,0.0,79,0.00,,OVC060,0.19,VWS V14.01,2013-04-24 14:17:00,
2013-04-24 10:22:00,36.6,30.4,29.75,North,353,0.0,0.0,78,0.00,,OVC060,0.19,VWS V14.01,2013-04-24 14:22:00,
2013-04-24 10:27:00,36.5,30.0,29.75,North,0,0.0,0.0,77,0.00,,OVC060,0.19,VWS V14.01,2013-04-24 14:27:00,
2013-04-24 10:37:00,36.5,30.0,29.79,NNW,336,0.0,0.0,77,0.00,,OVC060,0.19,VWS V14.01,2013-04-24 14:37:00,
2013-04-24 10:47:00,36.5,30.3,29.80,NW,318,0.0,0.0,78,0.00,,OVC070,0.19,VWS V14.01,2013-04-24 14:47:00,
2013-04-24 10:52:00,36.5,30.3,29.80,NNW,337,0.0,0.0,78,0.00,,OVC070,0.19,VWS V14.01,2013-04-24 14:52:00,
2013-04-24 10:57:00,36.5,30.6,29.80,NNW,336,0.0,0.0,79,0.00,,OVC070,0.19,VWS V14.01,2013-04-24 14:57:00,
2013-04-24 11:12:00,36.0,30.4,29.81,NW,311,0.0,0.0,80,0.00,,OVC070,0.19,VWS V14.01,2013-04-24 15:12:00,
2013-04-24 11:17:00,35.9,30.6,29.82,NW,320,0.0,0.0,81,0.00,,OVC070,0.19,VWS V14.01,2013-04-24 15:17:00,
2013-04-24 11:22:00,35.8,30.9,29.82,NNW,336,0.0,0.0,82,0.00,,OVC070,0.19,VWS V14.01,2013-04-24 15:22:00,
2013-04-24 11:27:00,35.6,30.7,29.82,WNW,289,0.0,0.0,82,0.00,,OVC070,0.19,VWS V14.01,2013-04-24 15:27:00,
2013-04-24 11:32:00,35.9,31.2,29.83,NW,312,0.0,0.0,83,0.00,,OVC070,0.19,VWS V14.01,2013-04-24 15:32:00,
2013-04-24 11:37:00,35.6,31.0,29.83,NW,323,0.0,0.0,83,0.00,,OVC070,0.19,VWS V14.01,2013-04-24 15:37:00,
2013-04-24 11:42:00,35.5,31.1,29.83,NW,325,0.0,0.0,84,0.00,,OVC060,0.19,VWS V14.01,2013-04-24 15:42:00,
2013-04-24 11:47:00,35.5,31.1,29.83,NW,305,0.0,0.0,84,0.00,,OVC060,0.19,VWS V14.01,2013-04-24 15:47:00,
2013-04-24 11:52:00,35.6,31.5,29.83,NNW,333,0.0,0.0,85,0.00,,OVC060,0.19,VWS V14.01,2013-04-24 15:52:00,
2013-04-24 12:02:00,35.8,32.0,29.83,NNW,333,0.0,0.0,86,0.00,,OVC060,0.19,VWS V14.01,2013-04-24 16:02:00,
2013-04-24 12:12:00,35.6,31.8,29.83,NW,325,0.0,0.0,86,0.00,,OVC060,0.19,VWS V14.01,2013-04-24 16:12:00,
2013-04-24 12:22:00,35.8,32.0,29.82,North,349,0.0,0.0,86,0.00,,OVC060,0.19,VWS V14.01,2013-04-24 16:22:00,
2013-04-24 12:27:00,36.0,31.9,29.82,North,349,0.0,0.0,85,0.00,,OVC060,0.19,VWS V14.01,2013-04-24 16:27:00,
2013-04-24 12:32:00,36.3,32.5,29.83,WNW,295,0.0,0.0,86,0.00,,OVC060,0.19,VWS V14.01,2013-04-24 16:32:00,
2013-04-24 12:37:00,35.9,31.8,29.83,NNW,335,0.0,0.0,85,0.00,,OVC060,0.19,VWS V14.01,2013-04-24 16:37:00,
2013-04-24 12:42:00,35.8,31.7,29.83,NNW,344,0.0,0.0,85,0.00,,OVC044,0.19,VWS V14.01,2013-04-24 16:42:00,
2013-04-24 12:52:00,35.6,31.5,29.83,NW,315,0.0,0.0,85,0.00,,OVC044,0.19,VWS V14.01,2013-04-24 16:52:00,
2013-04-24 12:57:00,35.9,32.1,29.83,NW,323,0.0,0.0,86,0.00,,OVC044,0.19,VWS V14.01,2013-04-24 16:57:00,
2013-04-24 13:02:00,35.9,32.1,29.83,NW,311,0.0,0.0,86,0.00,,OVC044,0.19,VWS V14.01,2013-04-24 17:02:00,
2013-04-24 13:12:00,36.6,32.5,29.83,North,353,0.0,0.0,85,0.00,,OVC044,0.19,VWS V14.01,2013-04-24 17:12:00,
2013-04-24 13:17:00,37.0,32.9,29.85,WSW,246,0.0,0.0,85,0.00,,OVC044,0.19,VWS V14.01,2013-04-24 17:17:00,
2013-04-24 13:27:00,37.8,32.8,29.85,WNW,302,0.0,0.0,82,0.00,,OVC044,0.19,VWS V14.01,2013-04-24 17:27:00,
2013-04-24 13:32:00,37.9,32.3,29.86,NW,308,0.0,0.0,80,0.00,,OVC044,0.19,VWS V14.01,2013-04-24 17:32:00,
2013-04-24 13:37:00,37.9,32.0,29.86,WNW,295,0.0,0.0,79,0.00,,OVC044,0.19,VWS V14.01,2013-04-24 17:37:00,
2013-04-24 13:47:00,38.3,32.0,29.86,WNW,284,0.0,0.0,78,0.00,,OVC036,0.19,VWS V14.01,2013-04-24 17:47:00,
2013-04-24 13:52:00,38.6,32.0,29.86,WNW,282,0.0,0.0,77,0.00,,OVC036,0.19,VWS V14.01,2013-04-24 17:52:00,
2013-04-24 13:57:00,38.9,32.0,29.86,West,277,0.0,0.0,76,0.00,,OVC036,0.19,VWS V14.01,2013-04-24 17:57:00,
2013-04-24 14:02:00,39.2,32.0,29.86,NNW,336,0.0,0.0,75,0.00,,OVC036,0.19,VWS V14.01,2013-04-24 18:02:00,
2013-04-24 14:07:00,38.9,31.0,29.86,NW,323,0.0,0.0,73,0.00,,OVC036,0.19,VWS V14.01,2013-04-24 18:07:00,
2013-04-24 14:12:00,38.9,31.3,29.86,WNW,294,0.0,0.0,74,0.00,,OVC036,0.19,VWS V14.01,2013-04-24 18:12:00,
2013-04-24 14:17:00,38.8,31.2,29.87,NW,326,0.0,0.0,74,0.00,,OVC036,0.19,VWS V14.01,2013-04-24 18:17:00,
2013-04-24 14:22:00,38.3,31.4,29.87,NNW,330,0.0,0.0,76,0.00,,OVC036,0.19,VWS V14.01,2013-04-24 18:22:00,
2013-04-24 14:32:00,38.3,31.4,29.88,NW,304,0.0,0.0,76,0.00,,OVC036,0.19,VWS V14.01,2013-04-24 18:32:00,
2013-04-24 14:37:00,38.6,31.4,29.88,NW,319,0.0,0.0,75,0.00,,OVC036,0.19,VWS V14.01,2013-04-24 18:37:00,
2013-04-24 14:42:00,39.1,31.5,29.88,North,357,0.0,0.0,74,0.00,,OVC036,0.19,VWS V14.01,2013-04-24 18:42:00,
2013-04-24 14:47:00,38.9,31.0,29.88,NW,316,0.0,0.0,73,0.00,,OVC036,0.19,VWS V14.01,2013-04-24 18:47:00,
2013-04-24 14:52:00,39.2,30.6,29.88,NNW,335,0.0,0.0,71,0.00,,OVC036,0.19,VWS V14.01,2013-04-24 18:52:00,
2013-04-24 14:57:00,39.8,30.8,29.88,NNW,332,0.0,0.0,70,0.00,,OVC036,0.19,VWS V14.01,2013-04-24 18:57:00,
2013-04-24 15:07:00,39.9,30.6,29.88,NW,316,0.0,0.0,69,0.00,,OVC036,0.19,VWS V14.01,2013-04-24 19:07:00,
2013-04-24 15:12:00,40.3,30.2,29.88,West,261,0.0,0.0,67,0.00,,OVC036,0.19,VWS V14.01,2013-04-24 19:12:00,
2013-04-24 15:17:00,40.6,29.8,29.88,NW,315,0.0,0.0,65,0.00,,OVC036,0.19,VWS V14.01,2013-04-24 19:17:00,
2013-04-24 15:22:00,41.2,29.6,29.88,West,272,0.0,0.0,63,0.00,,OVC036,0.19,VWS V14.01,2013-04-24 19:22:00,
2013-04-24 15:27:00,41.6,29.6,29.88,NW,305,0.0,0.0,62,0.00,,OVC036,0.19,VWS V14.01,2013-04-24 19:27:00,
2013-04-24 15:32:00,41.3,28.5,29.89,West,268,0.0,0.0,60,0.00,,OVC036,0.19,VWS V14.01,2013-04-24 19:32:00,
2013-04-24 15:37:00,41.5,29.5,29.89,West,280,0.0,0.0,62,0.00,,OVC036,0.19,VWS V14.01,2013-04-24 19:37:00,
2013-04-24 15:42:00,41.6,29.2,29.89,WNW,282,0.0,0.0,61,0.00,,BKN100,0.19,VWS V14.01,2013-04-24 19:42:00,
2013-04-24 15:47:00,41.9,29.9,29.89,WNW,299,0.0,0.0,62,0.00,,BKN100,0.19,VWS V14.01,2013-04-24 19:47:00,
2013-04-24 15:57:00,41.8,29.8,29.89,NW,320,0.0,0.0,62,0.00,,BKN100,0.19,VWS V14.01,2013-04-24 19:57:00,
2013-04-24 16:02:00,41.6,29.2,29.90,WNW,301,0.0,0.0,61,0.00,,BKN100,0.19,VWS V14.01,2013-04-24 20:02:00,
2013-04-24 16:12:00,42.1,30.0,29.90,NW,316,0.0,0.0,62,0.00,,BKN100,0.19,VWS V14.01,2013-04-24 20:12:00,
2013-04-24 16:17:00,41.9,29.5,29.90,NNW,330,0.0,0.0,61,0.00,,BKN100,0.19,VWS V14.01,2013-04-24 20:17:00,
2013-04-24 16:22:00,41.8,29.4,29.90,West,260,0.0,0.0,61,0.00,,BKN100,0.19,VWS V14.01,2013-04-24 20:22:00,
2013-04-24 16:27:00,42.3,29.4,29.90,NW,320,0.0,0.0,60,0.00,,BKN100,0.19,VWS V14.01,2013-04-24 20:27:00,
2013-04-24 16:32:00,41.9,28.2,29.89,NW,316,0.0,0.0,58,0.00,,BKN100,0.19,VWS V14.01,2013-04-24 20:32:00,
2013-04-24 16:37:00,41.8,28.5,29.89,NW,318,0.0,0.0,59,0.00,,BKN100,0.19,VWS V14.01,2013-04-24 20:37:00,
2013-04-24 16:42:00,42.1,28.8,29.89,WNW,298,0.0,0.0,59,0.00,,FEW034,0.19,VWS V14.01,2013-04-24 20:42:00,
2013-04-24 16:47:00,42.5,28.8,29.90,WNW,288,0.0,0.0,58,0.00,,FEW034,0.19,VWS V14.01,2013-04-24 20:47:00,
2013-04-24 16:52:00,42.9,28.3,29.90,NW,320,0.0,0.0,56,0.00,,FEW034,0.19,VWS V14.01,2013-04-24 20:52:00,
2013-04-24 16:57:00,42.9,28.3,29.90,NW,306,0.0,0.0,56,0.00,,FEW034,0.19,VWS V14.01,2013-04-24 20:57:00,
2013-04-24 17:02:00,42.9,28.3,29.90,NW,323,0.0,0.0,56,0.00,,FEW034,0.19,VWS V14.01,2013-04-24 21:02:00,
2013-04-24 17:07:00,42.6,28.0,29.90,NNW,344,0.0,0.0,56,0.00,,FEW034,0.19,VWS V14.01,2013-04-24 21:07:00,
2013-04-24 17:17:00,43.2,29.0,29.90,WNW,285,0.0,0.0,57,0.00,,FEW034,0.19,VWS V14.01,2013-04-24 21:17:00,
2013-04-24 17:22:00,43.5,29.3,29.90,WNW,298,0.0,0.0,57,0.00,,FEW034,0.19,VWS V14.01,2013-04-24 21:22:00,
2013-04-24 17:27:00,43.3,28.2,29.90,NW,320,0.0,0.0,55,0.00,,FEW034,0.19,VWS V14.01,2013-04-24 21:27:00,
2013-04-24 17:32:00,43.6,28.5,29.91,NW,311,0.0,0.0,55,0.00,,FEW034,0.19,VWS V14.01,2013-04-24 21:32:00,
2013-04-24 17:37:00,43.6,27.6,29.91,WNW,294,0.0,0.0,53,0.00,,FEW034,0.19,VWS V14.01,2013-04-24 21:37:00,
2013-04-24 17:42:00,43.6,27.6,29.91,NW,309,0.0,0.0,53,0.00,,CLR,0.19,VWS V14.01,2013-04-24 21:42:00,
2013-04-24 17:47:00,43.9,27.9,29.92,NW,309,0.0,0.0,53,0.00,,CLR,0.19,VWS V14.01,2013-04-24 21:47:00,
2013-04-24 17:52:00,44.1,27.1,29.92,West,265,0.0,0.0,51,0.00,,CLR,0.19,VWS V14.01,2013-04-24 21:52:00,
2013-04-24 17:57:00,44.1,28.1,29.92,WNW,301,0.0,0.0,53,0.00,,CLR,0.19,VWS V14.01,2013-04-24 21:57:00,
2013-04-24 18:02:00,44.1,27.6,29.92,WNW,291,0.0,0.0,52,0.00,,CLR,0.19,VWS V14.01,2013-04-24 22:02:00,
2013-04-24 18:12:00,44.9,28.8,29.92,NW,305,0.0,0.0,53,0.00,,CLR,0.19,VWS V14.01,2013-04-24 22:12:00,
2013-04-24 18:17:00,44.9,26.9,29.92,NW,312,0.0,0.0,49,0.00,,CLR,0.19,VWS V14.01,2013-04-24 22:17:00,
2013-04-24 18:27:00,44.6,26.1,29.92,West,280,0.0,0.0,48,0.00,,CLR,0.19,VWS V14.01,2013-04-24 22:27:00,
2013-04-24 18:32:00,44.5,26.5,29.92,West,277,0.0,0.0,49,0.00,,CLR,0.19,VWS V14.01,2013-04-24 22:32:00,
2013-04-24 18:37:00,44.6,27.1,29.92,West,274,0.0,0.0,50,0.00,,CLR,0.19,VWS V14.01,2013-04-24 22:37:00,
2013-04-24 18:42:00,44.9,26.4,29.92,NW,322,0.0,0.0,48,0.00,,CLR,0.19,VWS V14.01,2013-04-24 22:42:00,
2013-04-24 18:47:00,45.4,26.9,29.92,NNW,335,0.0,0.0,48,0.00,,CLR,0.19,VWS V14.01,2013-04-24 22:47:00,
2013-04-24 18:57:00,45.5,27.5,29.92,WNW,295,0.0,0.0,49,0.00,,CLR,0.19,VWS V14.01,2013-04-24 22:57:00,
2013-04-24 19:02:00,45.7,27.1,29.93,West,265,0.0,0.0,48,0.00,,CLR,0.19,VWS V14.01,2013-04-24 23:02:00,
2013-04-24 19:07:00,45.7,27.1,29.93,West,278,0.0,0.0,48,0.00,,CLR,0.19,VWS V14.01,2013-04-24 23:07:00,
2013-04-24 19:12:00,45.5,27.0,29.93,WNW,282,0.0,0.0,48,0.00,,CLR,0.19,VWS V14.01,2013-04-24 23:12:00,
2013-04-24 19:17:00,45.5,27.0,29.93,WNW,299,0.0,0.0,48,0.00,,CLR,0.19,VWS V14.01,2013-04-24 23:17:00,
2013-04-24 19:27:00,45.4,27.9,29.93,NW,306,0.0,0.0,50,0.00,,CLR,0.19,VWS V14.01,2013-04-24 23:27:00,
2013-04-24 19:32:00,45.5,28.4,29.93,West,281,0.0,0.0,51,0.00,,CLR,0.19,VWS V14.01,2013-04-24 23:32:00,
2013-04-24 19:42:00,45.4,27.9,29.93,West,271,0.0,0.0,50,0.00,,CLR,0.19,VWS V14.01,2013-04-24 23:42:00,
2013-04-24 19:47:00,45.4,28.4,29.94,WSW,243,0.0,0.0,51,0.00,,CLR,0.19,VWS V14.01,2013-04-24 23:47:00,
2013-04-24 19:57:00,45.4,27.9,29.94,WSW,243,0.0,0.0,50,0.00,,CLR,0.19,VWS V14.01,2013-04-24 23:57:00,
2013-04-24 20:02:00,45.2,27.7,29.94,SSW,209,0.0,0.0,50,0.00,,CLR,0.19,VWS V14.01,2013-04-25 00:02:00,
2013-04-24 20:12:00,44.9,27.9,29.94,SW,226,0.0,0.0,51,0.00,,CLR,0.19,VWS V14.01,2013-04-25 00:12:00,
2013-04-24 20:17:00,44.9,27.9,29.94,SW,232,0.0,0.0,51,0.00,,CLR,0.19,VWS V14.01,2013-04-25 00:17:00,
2013-04-24 20:22:00,44.8,28.3,29.94,West,278,0.0,0.0,52,0.00,,CLR,0.19,VWS V14.01,2013-04-25 00:22:00,
2013-04-24 20:27:00,44.6,28.1,29.94,SW,230,0.0,0.0,52,0.00,,CLR,0.19,VWS V14.01,2013-04-25 00:27:00,
2013-04-24 20:32:00,44.6,28.1,29.95,SW,222,0.0,0.0,52,0.00,,CLR,0.19,VWS V14.01,2013-04-25 00:32:00,
2013-04-24 20:37:00,44.5,28.0,29.95,SW,220,0.0,0.0,52,0.00,,CLR,0.19,VWS V14.01,2013-04-25 00:37:00,
2013-04-24 20:47:00,44.3,27.8,29.96,West,260,0.0,0.0,52,0.00,,CLR,0.19,VWS V14.01,2013-04-25 00:47:00,
2013-04-24 20:52:00,44.3,28.3,29.96,WSW,247,0.0,0.0,53,0.00,,CLR,0.19,VWS V14.01,2013-04-25 00:52:00,
2013-04-24 20:57:00,44.2,28.6,29.96,SW,215,0.0,0.0,54,0.00,,CLR,0.19,VWS V14.01,2013-04-25 00:57:00,
2013-04-24 21:02:00,44.1,29.0,29.97,SW,222,0.0,0.0,55,0.00,,CLR,0.19,VWS V14.01,2013-04-25 01:02:00,
2013-04-24 21:07:00,44.1,29.0,29.97,SSW,213,0.0,0.0,55,0.00,,CLR,0.19,VWS V14.01,2013-04-25 01:07:00,
2013-04-24 21:17:00,43.8,29.6,29.97,SW,222,0.0,0.0,57,0.00,,CLR,0.19,VWS V14.01,2013-04-25 01:17:00,
2013-04-24 21:22:00,43.8,29.6,29.97,SW,226,0.0,0.0,57,0.00,,CLR,0.19,VWS V14.01,2013-04-25 01:22:00,
2013-04-24 21:32:00,43.9,29.7,29.98,SSW,208,0.0,0.0,57,0.00,,CLR,0.19,VWS V14.01,2013-04-25 01:32:00,
2013-04-24 21:42:00,43.5,30.5,29.98,SSW,212,0.0,0.0,60,0.00,,CLR,0.19,VWS V14.01,2013-04-25 01:42:00,
2013-04-24 21:52:00,43.5,31.0,29.99,SW,232,0.0,0.0,61,0.00,,CLR,0.19,VWS V14.01,2013-04-25 01:52:00,
2013-04-24 22:02:00,43.5,31.4,30.00,SSW,212,0.0,0.0,62,0.00,,CLR,0.19,VWS V14.01,2013-04-25 02:02:00,
2013-04-24 22:07:00,43.5,31.4,30.00,SW,224,0.0,0.0,62,0.00,,CLR,0.19,VWS V14.01,2013-04-25 02:07:00,
2013-04-24 22:12:00,43.5,31.4,30.00,SW,220,0.0,0.0,62,0.00,,CLR,0.19,VWS V14.01,2013-04-25 02:12:00,
2013-04-24 22:17:00,43.5,31.4,30.00,SSW,213,0.0,0.0,62,0.00,,CLR,0.19,VWS V14.01,2013-04-25 02:17:00,
2013-04-24 22:22:00,43.3,31.2,30.00,SSW,206,0.0,0.0,62,0.00,,CLR,0.19,VWS V14.01,2013-04-25 02:22:00,
2013-04-24 22:27:00,43.5,31.4,30.00,SSW,203,0.0,0.0,62,0.00,,CLR,0.19,VWS V14.01,2013-04-25 02:27:00,
2013-04-24 22:32:00,43.3,31.2,30.01,SSW,212,0.0,0.0,62,0.00,,CLR,0.19,VWS V14.01,2013-04-25 02:32:00,
2013-04-24 22:42:00,43.1,31.4,30.01,SSW,212,0.0,0.0,63,0.00,,CLR,0.19,VWS V14.01,2013-04-25 02:42:00,
2013-04-24 22:47:00,42.9,31.2,30.01,SSW,193,0.0,0.0,63,0.00,,CLR,0.19,VWS V14.01,2013-04-25 02:47:00,
2013-04-24 22:57:00,42.5,31.6,30.01,SSW,206,0.0,0.0,65,0.00,,CLR,0.19,VWS V14.01,2013-04-25 02:57:00,
2013-04-24 23:02:00,42.3,31.4,30.00,SSW,212,0.0,0.0,65,0.00,,CLR,0.19,VWS V14.01,2013-04-25 03:02:00,
2013-04-24 23:12:00,42.1,31.6,30.00,SSW,208,0.0,0.0,66,0.00,,CLR,0.19,VWS V14.01,2013-04-25 03:12:00,
2013-04-24 23:17:00,41.9,31.8,30.01,SSW,205,0.0,0.0,67,0.00,,CLR,0.19,VWS V14.01,2013-04-25 03:17:00,
2013-04-24 23:22:00,41.8,32.0,30.01,SSW,199,0.0,0.0,68,0.00,,CLR,0.19,VWS V14.01,2013-04-25 03:22:00,
2013-04-24 23:27:00,41.6,31.8,30.01,SSW,200,0.0,0.0,68,0.00,,CLR,0.19,VWS V14.01,2013-04-25 03:27:00,
2013-04-24 23:32:00,41.5,32.1,30.01,SSW,202,0.0,0.0,69,0.00,,CLR,0.19,VWS V14.01,2013-04-25 03:32:00,
2013-04-24 23:37:00,41.2,31.8,30.01,SSW,200,0.0,0.0,69,0.00,,CLR,0.19,VWS V14.01,2013-04-25 03:37:00,
2013-04-24 23:42:00,41.1,32.1,30.01,SSW,199,0.0,0.0,70,0.00,,CLR,0.19,VWS V14.01,2013-04-25 03:42:00,
2013-04-24 23:47:00,40.6,32.0,30.02,South,186,0.0,0.0,71,0.00,,CLR,0.19,VWS V14.01,2013-04-25 03:47:00,
2013-04-24 23:52:00,40.3,31.7,30.02,SSW,193,0.0,0.0,71,0.00,,CLR,0.19,VWS V14.01,2013-04-25 03:52:00,